No particular awareness of the weather is required.    There are no Weather-warnings


Meteo18 Weather Cam more information Meteo18 Weather Cam


Thunder radar more information blitzortung!


Rain radar more information rain snow radar


Visit our other weather sites:

Template documentation
and downloads

And another site



Weather Underground History page Text

Daily Summary for September 1, 2017 Units:  English    Metric   Both
« Previous Day
Next Day »
Daily Weekly Monthly Yearly Custom
  High: Low: Average:
Temperature: TemperatureC °F 8.8 °F 13.5 °F
Dew Point: DewpointC °F 8.0 °F 10.2 °F
Humidity: Humidity % 47 % 81 %
Wind Speed: WindSpeedKMH mph 0.0 mph 2.1 mph
Wind Gust: WindSpeedGustKMH mph - -
Wind:- - SSW
Pressure: PressurehPa in 1020.2 in -
Precipitation: 1.5 in    
Historical Graphs
 
 
Tabular Data for September 1, 2017
Time Temperature Dew Point Pressure Wind Wind Speed Wind Gust Humidity Rainfall Rate (Hourly)
TemperatureC °F DewpointC °F PressurehPa in Calm     Humidity % HourlyPrecipMM in
00:02 13.3 °F 10.5 °F 1022.6 in Calm     83 % 0.0 in
00:07 13.3 °F 10.5 °F 1022.6 in Calm     83 % 0.0 in
00:12 13.4 °F 10.6 °F 1022.6 in Calm     83 % 0.0 in
00:17 13.4 °F 10.8 °F 1022.6 in Calm     84 % 0.0 in
00:22 13.4 °F 10.8 °F 1022.2 in Calm     84 % 0.0 in
00:32 13.2 °F 10.7 °F 1022.2 in Calm     85 % 0.0 in
00:42 13.0 °F 10.5 °F 1022.6 in Calm     85 % 0.0 in
00:47 12.9 °F 10.4 °F 1022.2 in Calm     85 % 0.0 in
00:52 12.9 °F 10.4 °F 1022.2 in Calm     85 % 0.0 in
01:02 12.4 °F 9.9 °F 1022.2 in Calm     85 % 0.0 in
01:12 12.4 °F 9.8 °F 1022.2 in Calm     84 % 0.0 in
01:17 12.6 °F 10.0 °F 1022.2 in Calm     84 % 0.0 in
01:22 12.7 °F 10.4 °F 1022.2 in Calm     86 % 0.0 in
01:27 12.7 °F 10.4 °F 1022.2 in Calm     86 % 0.0 in
01:32 12.5 °F 10.0 °F 1022.2 in Calm     85 % 0.0 in
01:42 12.1 °F 10.0 °F 1022.2 in Calm     87 % 0.0 in
01:47 12.0 °F 9.7 °F 1022.2 in Calm     86 % 0.0 in
01:52 11.8 °F 9.7 °F 1022.2 in Calm     87 % 0.0 in
02:02 11.7 °F 9.6 °F 1022.2 in Calm     87 % 0.0 in
02:07 11.7 °F 9.8 °F 1022.2 in Calm     88 % 0.0 in
02:12 11.6 °F 9.7 °F 1021.9 in Calm     88 % 0.0 in
02:22 11.5 °F 9.6 °F 1021.9 in Calm     88 % 0.0 in
02:32 11.5 °F 9.7 °F 1021.9 in Calm     89 % 0.0 in
02:42 11.4 °F 9.3 °F 1021.9 in Calm     87 % 0.0 in
02:47 11.5 °F 9.4 °F 1021.9 in Calm     87 % 0.0 in
02:52 11.4 °F 9.3 °F 1021.9 in Calm     87 % 0.0 in
03:02 11.2 °F 9.1 °F 1021.9 in Calm     87 % 0.0 in
03:07 11.1 °F 9.2 °F 1021.9 in Calm     88 % 0.0 in
03:12 11.1 °F 9.2 °F 1021.9 in Calm     88 % 0.0 in
03:17 10.9 °F 9.0 °F 1021.9 in Calm     88 % 0.0 in
03:22 10.8 °F 8.9 °F 1021.9 in Calm     88 % 0.0 in
03:27 10.7 °F 9.0 °F 1021.6 in Calm     89 % 0.0 in
03:32 10.6 °F 8.9 °F 1021.6 in Calm     89 % 0.0 in
03:37 10.5 °F 8.8 °F 1021.6 in Calm     89 % 0.0 in
03:42 10.4 °F 8.8 °F 1021.6 in Calm     90 % 0.0 in
03:47 10.4 °F 8.8 °F 1021.6 in Calm     90 % 0.0 in
03:52 10.4 °F 8.8 °F 1021.6 in Calm     90 % 0.0 in
03:57 10.3 °F 8.9 °F 1021.6 in Calm     91 % 0.0 in
04:02 10.3 °F 8.9 °F 1021.9 in Calm     91 % 0.0 in
04:12 10.2 °F 8.8 °F 1021.6 in Calm     91 % 0.0 in
04:17 10.2 °F 8.8 °F 1021.6 in Calm     91 % 0.0 in
04:22 10.2 °F 8.8 °F 1021.6 in Calm     91 % 0.0 in
04:27 10.2 °F 8.8 °F 1021.6 in Calm     91 % 0.0 in
04:32 10.2 °F 9.0 °F 1021.6 in Calm     92 % 0.0 in
04:42 10.1 °F 8.7 °F 1021.6 in NE 4.8 mph 6.4 mph 91 % 0.0 in
04:47 10.0 °F 8.8 °F 1021.6 in Calm   6.4 mph 92 % 0.0 in
04:52 10.1 °F 9.0 °F 1021.6 in NNE 1.6 mph 6.4 mph 93 % 0.0 in
04:57 10.1 °F 8.9 °F 1021.6 in NNE 1.6 mph 4.8 mph 92 % 0.0 in
05:02 10.1 °F 8.9 °F 1021.6 in Calm   4.8 mph 92 % 0.0 in
05:07 10.2 °F 9.1 °F 1021.6 in Calm   3.2 mph 93 % 0.0 in
05:12 10.2 °F 9.1 °F 1021.6 in ENE 3.2 mph 3.2 mph 93 % 0.0 in
05:22 10.1 °F 8.9 °F 1021.6 in Calm   6.4 mph 92 % 0.0 in
05:27 10.0 °F 8.8 °F 1021.6 in Calm   4.8 mph 92 % 0.0 in
05:32 9.8 °F 8.6 °F 1021.6 in Calm   4.8 mph 92 % 0.0 in
05:37 9.7 °F 8.5 °F 1021.6 in Calm     92 % 0.0 in
05:42 9.6 °F 8.4 °F 1021.6 in Calm     92 % 0.0 in
05:47 9.6 °F 8.5 °F 1021.6 in Calm   1.6 mph 93 % 0.0 in
05:52 9.6 °F 8.5 °F 1021.6 in NW 1.6 mph 1.6 mph 93 % 0.0 in
05:57 9.6 °F 8.5 °F 1021.6 in Calm   3.2 mph 93 % 0.0 in
06:02 9.6 °F 8.5 °F 1021.6 in Calm   3.2 mph 93 % 0.0 in
06:12 9.3 °F 8.1 °F 1021.6 in WNW 3.2 mph 3.2 mph 92 % 0.0 in
06:17 9.1 °F 8.0 °F 1021.6 in Calm   1.6 mph 93 % 0.0 in
06:22 9.2 °F 8.3 °F 1021.6 in Calm   3.2 mph 94 % 0.0 in
06:27 9.2 °F 8.3 °F 1021.6 in WNW 1.6 mph 3.2 mph 94 % 0.0 in
06:32 9.0 °F 8.1 °F 1021.6 in Calm   3.2 mph 94 % 0.0 in
06:37 9.0 °F 8.1 °F 1021.6 in Calm   3.2 mph 94 % 0.0 in
06:42 8.9 °F 8.0 °F 1021.6 in WNW 3.2 mph 3.2 mph 94 % 0.0 in
06:47 8.9 °F 8.0 °F 1021.6 in Calm   3.2 mph 94 % 0.0 in
06:52 8.9 °F 8.0 °F 1021.6 in Calm   3.2 mph 94 % 0.0 in
06:57 8.9 °F 8.1 °F 1021.6 in West 1.6 mph 3.2 mph 95 % 0.0 in
07:02 9.1 °F 8.3 °F 1021.6 in Calm   3.2 mph 95 % 0.0 in
07:07 9.1 °F 8.3 °F 1021.6 in Calm   1.6 mph 95 % 0.0 in
07:12 9.1 °F 8.3 °F 1021.6 in Calm   1.6 mph 95 % 0.0 in
07:17 8.9 °F 8.0 °F 1021.6 in West 1.6 mph 3.2 mph 94 % 0.0 in
07:22 8.8 °F 8.0 °F 1021.6 in West 1.6 mph 3.2 mph 95 % 0.0 in
07:27 8.9 °F 8.1 °F 1021.6 in Calm   3.2 mph 95 % 0.0 in
07:32 9.1 °F 8.3 °F 1021.6 in Calm   3.2 mph 95 % 0.0 in
07:37 9.1 °F 8.3 °F 1021.6 in Calm   3.2 mph 95 % 0.0 in
07:42 9.1 °F 8.3 °F 1021.6 in Calm   3.2 mph 95 % 0.0 in
07:47 9.2 °F 8.4 °F 1021.6 in Calm     95 % 0.0 in
07:52 9.2 °F 8.3 °F 1021.6 in Calm     94 % 0.0 in
07:57 9.2 °F 8.4 °F 1021.6 in Calm   1.6 mph 95 % 0.0 in
08:02 9.2 °F 8.4 °F 1021.6 in Calm   1.6 mph 95 % 0.0 in
08:07 9.3 °F 8.5 °F 1021.6 in Calm     95 % 0.0 in
08:12 9.3 °F 8.5 °F 1021.6 in Calm     95 % 0.0 in
08:17 9.6 °F 8.8 °F 1021.6 in Calm   3.2 mph 95 % 0.0 in
08:22 9.8 °F 9.0 °F 1021.6 in Calm   3.2 mph 95 % 0.0 in
08:32 9.7 °F 8.8 °F 1021.6 in Calm   1.6 mph 94 % 0.0 in
08:37 9.8 °F 8.9 °F 1021.6 in Calm   1.6 mph 94 % 0.0 in
08:42 9.9 °F 9.0 °F 1021.6 in Calm   1.6 mph 94 % 0.0 in
08:47 10.1 °F 9.2 °F 1021.9 in Calm     94 % 0.0 in
08:57 10.5 °F 9.7 °F 1021.6 in Calm     95 % 0.0 in
09:02 10.9 °F 10.1 °F 1021.6 in Calm     95 % 0.0 in
09:07 11.2 °F 10.3 °F 1021.6 in Calm   1.6 mph 94 % 0.0 in
09:12 11.7 °F 10.8 °F 1021.6 in Calm   1.6 mph 94 % 0.0 in
09:22 12.3 °F 10.9 °F 1021.6 in Calm   1.6 mph 91 % 0.0 in
09:27 12.6 °F 10.8 °F 1021.6 in Calm   1.6 mph 89 % 0.0 in
09:32 13.1 °F 11.5 °F 1021.6 in Calm   1.6 mph 90 % 0.0 in
09:37 13.8 °F 11.5 °F 1021.6 in Calm     86 % 0.0 in
09:42 14.1 °F 11.4 °F 1021.6 in Calm     84 % 0.0 in
09:47 14.8 °F 11.8 °F 1021.6 in Calm     82 % 0.0 in
09:52 14.6 °F 11.2 °F 1021.6 in Calm     80 % 0.0 in
09:57 14.7 °F 11.5 °F 1021.6 in Calm     81 % 0.0 in
10:02 14.9 °F 11.3 °F 1021.6 in Calm     79 % 0.0 in
10:07 15.2 °F 11.4 °F 1021.6 in Calm     78 % 0.0 in
10:12 15.3 °F 11.3 °F 1021.6 in Calm     77 % 0.0 in
10:17 15.4 °F 11.4 °F 1021.6 in Calm     77 % 0.0 in
10:27 15.7 °F 11.1 °F 1021.9 in Calm   1.6 mph 74 % 0.0 in
10:32 16.1 °F 11.3 °F 1021.9 in Calm   1.6 mph 73 % 0.0 in
10:37 16.6 °F 11.5 °F 1021.9 in Calm   3.2 mph 72 % 0.0 in
10:42 16.6 °F 11.1 °F 1021.9 in ESE 4.8 mph 4.8 mph 70 % 0.0 in
10:47 16.4 °F 11.3 °F 1021.9 in SE 4.8 mph 8.0 mph 72 % 0.0 in
10:52 16.6 °F 11.7 °F 1021.9 in Calm   8.0 mph 73 % 0.0 in
10:57 16.7 °F 11.4 °F 1021.9 in SSE 3.2 mph 9.7 mph 71 % 0.0 in
11:02 16.7 °F 11.6 °F 1021.9 in Calm   9.7 mph 72 % 0.0 in
11:07 16.8 °F 11.3 °F 1021.9 in SW 4.8 mph 9.7 mph 70 % 0.0 in
11:12 16.9 °F 11.2 °F 1021.9 in SE 1.6 mph 9.7 mph 69 % 0.0 in
11:22 17.8 °F 11.4 °F 1021.9 in SSE 1.6 mph 6.4 mph 66 % 0.0 in
11:27 18.1 °F 11.9 °F 1021.6 in South 3.2 mph 6.4 mph 67 % 0.0 in
11:32 18.4 °F 11.7 °F 1021.9 in SW 4.8 mph 6.4 mph 65 % 0.0 in
11:37 18.1 °F 11.2 °F 1021.6 in SSW 1.6 mph 6.4 mph 64 % 0.0 in
11:42 18.2 °F 11.3 °F 1021.6 in SW 1.6 mph 6.4 mph 64 % 0.0 in
11:47 18.0 °F 11.1 °F 1021.6 in Calm   8.0 mph 64 % 0.0 in
11:57 18.6 °F 11.2 °F 1021.6 in South 1.6 mph 8.0 mph 62 % 0.0 in
12:02 18.9 °F 11.5 °F 1021.6 in SSW 6.4 mph 8.0 mph 62 % 0.0 in
12:12 19.9 °F 11.9 °F 1021.6 in Calm   9.7 mph 60 % 0.0 in
12:17 20.0 °F 10.4 °F 1021.6 in WSW 4.8 mph 11.3 mph 54 % 0.0 in
12:22 20.2 °F 10.6 °F 1021.2 in SE 1.6 mph 11.3 mph 54 % 0.0 in
12:32 20.7 °F 9.3 °F 1021.2 in SSW 3.2 mph 11.3 mph 48 % 0.0 in
12:37 20.3 °F 8.6 °F 1021.2 in West 3.2 mph 9.7 mph 47 % 0.0 in
12:42 20.1 °F 9.4 °F 1021.2 in WNW 1.6 mph 9.7 mph 50 % 0.0 in
12:47 19.7 °F 9.3 °F 1021.2 in WNW 9.7 mph 9.7 mph 51 % 0.0 in
12:52 18.6 °F 8.0 °F 1021.2 in WNW 14.5 mph 20.9 mph 50 % 0.0 in
12:57 17.2 °F 8.9 °F 1021.2 in North 8.0 mph 27.4 mph 58 % 0.0 in
13:02 16.2 °F 8.9 °F 1021.2 in NW 8.0 mph 27.4 mph 62 % 0.3 in
13:12 15.4 °F 9.1 °F 1021.2 in NW 6.4 mph 14.5 mph 66 % 0.5 in
13:17 14.9 °F 9.5 °F 1021.2 in NNW 8.0 mph 14.5 mph 70 % 0.5 in
13:22 15.0 °F 9.1 °F 1021.2 in NNW 8.0 mph 17.7 mph 68 % 0.8 in
13:27 15.2 °F 8.9 °F 1021.2 in North 6.4 mph 17.7 mph 66 % 0.8 in
13:32 15.4 °F 10.2 °F 1021.2 in NNW 3.2 mph 14.5 mph 71 % 0.8 in
13:37 14.8 °F 10.4 °F 1020.9 in NNW 6.4 mph 14.5 mph 75 % 0.8 in
13:42 15.0 °F 10.8 °F 1021.2 in NNE 8.0 mph 12.9 mph 76 % 1.0 in
13:47 15.1 °F 10.7 °F 1021.2 in NNW 9.7 mph 14.5 mph 75 % 1.0 in
13:52 15.3 °F 10.9 °F 1021.6 in NNW 8.0 mph 19.3 mph 75 % 1.0 in
13:57 15.5 °F 11.5 °F 1021.6 in NNE 6.4 mph 19.3 mph 77 % 1.0 in
14:02 15.7 °F 11.3 °F 1021.6 in NNE 9.7 mph 19.3 mph 75 % 0.8 in
14:07 15.8 °F 11.0 °F 1021.6 in ENE 9.7 mph 14.5 mph 73 % 0.8 in
14:12 15.8 °F 10.8 °F 1021.6 in ENE 3.2 mph 14.5 mph 72 % 0.5 in
14:17 15.8 °F 10.8 °F 1021.6 in Calm   14.5 mph 72 % 0.5 in
14:22 15.9 °F 11.1 °F 1021.6 in ESE 1.6 mph 11.3 mph 73 % 0.3 in
14:32 15.9 °F 10.6 °F 1021.6 in Calm   6.4 mph 71 % 0.3 in
14:37 15.8 °F 10.6 °F 1021.6 in East 6.4 mph 9.7 mph 71 % 0.3 in
14:42 15.6 °F 10.1 °F 1021.6 in ENE 6.4 mph 9.7 mph 70 % 0.0 in
14:47 15.6 °F 9.7 °F 1021.2 in NNE 6.4 mph 9.7 mph 68 % 0.0 in
14:57 15.7 °F 9.8 °F 1020.9 in NNE 8.0 mph 9.7 mph 68 % 0.0 in
15:02 15.8 °F 10.1 °F 1020.9 in NE 1.6 mph 12.9 mph 69 % 0.0 in
15:12 16.2 °F 10.3 °F 1020.9 in Calm   11.3 mph 68 % 0.0 in
15:17 16.3 °F 9.9 °F 1020.9 in NNW 1.6 mph 6.4 mph 66 % 0.0 in
15:22 16.2 °F 11.1 °F 1020.9 in WNW 1.6 mph 3.2 mph 72 % 0.0 in
15:32 16.0 °F 11.2 °F 1020.5 in Calm   3.2 mph 73 % 0.0 in
15:42 15.9 °F 11.9 °F 1020.5 in Calm   3.2 mph 77 % 0.0 in
15:47 15.7 °F 11.7 °F 1020.5 in Calm   3.2 mph 77 % 0.0 in
15:52 15.7 °F 11.9 °F 1020.5 in Calm   4.8 mph 78 % 0.0 in
15:57 15.7 °F 11.9 °F 1020.5 in Calm   4.8 mph 78 % 0.0 in
16:02 15.7 °F 11.9 °F 1020.5 in NE 1.6 mph 4.8 mph 78 % 0.0 in
16:12 15.6 °F 11.0 °F 1020.5 in NE 9.7 mph 9.7 mph 74 % 0.0 in
16:17 15.7 °F 10.7 °F 1020.5 in NE 6.4 mph 12.9 mph 72 % 0.0 in
16:22 15.7 °F 10.9 °F 1020.5 in NNE 9.7 mph 12.9 mph 73 % 0.0 in
16:32 15.8 °F 10.8 °F 1020.5 in North 1.6 mph 12.9 mph 72 % 0.0 in
16:42 15.9 °F 11.1 °F 1020.5 in NNE 4.8 mph 6.4 mph 73 % 0.0 in
16:47 16.1 °F 11.1 °F 1020.5 in NNW 3.2 mph 8.0 mph 72 % 0.0 in
16:52 16.2 °F 10.9 °F 1020.5 in NE 8.0 mph 9.7 mph 71 % 0.0 in
16:57 16.2 °F 10.7 °F 1020.5 in NE 6.4 mph 12.9 mph 70 % 0.0 in
17:02 16.2 °F 10.7 °F 1020.5 in NNE 4.8 mph 12.9 mph 70 % 0.0 in
17:12 16.3 °F 10.6 °F 1020.2 in NE 11.3 mph 17.7 mph 69 % 0.0 in
17:17 16.4 °F 10.9 °F 1020.2 in NNE 1.6 mph 17.7 mph 70 % 0.0 in
17:22 16.4 °F 10.9 °F 1020.2 in NNE 3.2 mph 14.5 mph 70 % 0.0 in
17:32 16.4 °F 11.1 °F 1020.2 in ENE 1.6 mph 12.9 mph 71 % 0.0 in
17:37 16.4 °F 10.9 °F 1020.2 in NNW 6.4 mph 12.9 mph 70 % 0.0 in
17:42 16.4 °F 11.3 °F 1020.2 in NW 3.2 mph 14.5 mph 72 % 0.0 in
17:47 16.5 °F 11.4 °F 1020.2 in NE 4.8 mph 14.5 mph 72 % 0.0 in
17:52 16.6 °F 11.1 °F 1020.2 in NE 6.4 mph 14.5 mph 70 % 0.0 in
17:57 16.7 °F 11.2 °F 1020.2 in NNE 1.6 mph 8.0 mph 70 % 0.0 in
18:02 16.8 °F 10.6 °F 1020.2 in NNE 6.4 mph 8.0 mph 67 % 0.0 in
18:12 16.9 °F 10.7 °F 1020.2 in NNE 6.4 mph 9.7 mph 67 % 0.0 in
18:17 16.9 °F 10.7 °F 1020.2 in NNE 1.6 mph 9.7 mph 67 % 0.0 in
18:22 16.9 °F 10.7 °F 1020.2 in NE 4.8 mph 9.7 mph 67 % 0.0 in
18:32 16.8 °F 10.4 °F 1020.2 in NE 1.6 mph 12.9 mph 66 % 0.0 in
18:37 16.7 °F 10.8 °F 1020.2 in Calm   8.0 mph 68 % 0.0 in
18:42 16.6 °F 10.9 °F 1020.2 in Calm   4.8 mph 69 % 0.0 in
18:47 16.6 °F 10.7 °F 1020.5 in Calm   4.8 mph 68 % 0.0 in
18:57 16.4 °F 10.7 °F 1020.5 in Calm   1.6 mph 69 % 0.0 in
19:02 16.3 °F 11.0 °F 1020.5 in Calm   1.6 mph 71 % 0.0 in
19:12 16.2 °F 10.9 °F 1020.9 in West 1.6 mph 1.6 mph 71 % 0.0 in
19:17 15.9 °F 11.1 °F 1020.9 in West 9.7 mph 9.7 mph 73 % 0.0 in
19:22 15.9 °F 10.6 °F 1021.2 in West 11.3 mph 12.9 mph 71 % 0.0 in
19:27 15.8 °F 11.4 °F 1021.6 in West 14.5 mph 14.5 mph 75 % 0.0 in
19:32 15.6 °F 11.6 °F 1021.6 in West 6.4 mph 24.1 mph 77 % 0.0 in
19:42 15.3 °F 11.5 °F 1021.6 in WNW 8.0 mph 16.1 mph 78 % 0.0 in
19:47 15.2 °F 11.4 °F 1021.6 in West 8.0 mph 14.5 mph 78 % 0.0 in
19:52 15.2 °F 11.6 °F 1021.2 in West 3.2 mph 14.5 mph 79 % 0.0 in
19:57 15.1 °F 11.5 °F 1021.6 in West 8.0 mph 12.9 mph 79 % 0.0 in
20:02 15.0 °F 11.8 °F 1021.6 in NW 1.6 mph 12.9 mph 81 % 0.3 in
20:12 14.7 °F 11.5 °F 1021.6 in West 3.2 mph 11.3 mph 81 % 0.3 in
20:17 14.6 °F 11.6 °F 1021.6 in West 6.4 mph 11.3 mph 82 % 0.5 in
20:22 14.6 °F 11.6 °F 1021.6 in West 1.6 mph 11.3 mph 82 % 0.5 in
20:27 14.5 °F 11.6 °F 1021.6 in Calm   11.3 mph 83 % 0.5 in
20:32 14.4 °F 11.5 °F 1021.6 in WNW 3.2 mph 9.7 mph 83 % 0.5 in
20:42 14.3 °F 11.8 °F 1021.6 in WNW 1.6 mph 6.4 mph 85 % 0.5 in
20:52 14.2 °F 11.7 °F 1021.6 in WNW 1.6 mph 6.4 mph 85 % 0.5 in
20:57 14.1 °F 11.6 °F 1021.6 in NW 3.2 mph 6.4 mph 85 % 0.5 in
21:02 14.0 °F 11.7 °F 1021.6 in WNW 3.2 mph 6.4 mph 86 % 0.3 in
21:12 13.9 °F 11.6 °F 1021.9 in WNW 6.4 mph 6.4 mph 86 % 0.0 in
21:17 13.9 °F 11.6 °F 1021.9 in West 1.6 mph 6.4 mph 86 % 0.0 in
21:22 13.9 °F 11.6 °F 1021.9 in West 1.6 mph 6.4 mph 86 % 0.0 in
21:32 13.8 °F 11.3 °F 1021.9 in Calm   4.8 mph 85 % 0.0 in
21:42 13.8 °F 11.3 °F 1021.9 in Calm   4.8 mph 85 % 0.0 in
21:47 13.8 °F 11.1 °F 1021.9 in Calm   4.8 mph 84 % 0.0 in
21:52 13.7 °F 11.0 °F 1021.9 in NNW 1.6 mph 3.2 mph 84 % 0.0 in
21:57 13.7 °F 11.0 °F 1022.2 in NW 1.6 mph 4.8 mph 84 % 0.0 in
22:02 13.7 °F 11.0 °F 1022.2 in NW 1.6 mph 4.8 mph 84 % 0.0 in
22:12 13.7 °F 11.2 °F 1022.2 in NW 3.2 mph 6.4 mph 85 % 0.0 in
22:17 13.6 °F 11.3 °F 1022.2 in NW 1.6 mph 6.4 mph 86 % 0.0 in
22:22 13.4 °F 11.1 °F 1022.2 in WNW 4.8 mph 6.4 mph 86 % 0.0 in
22:27 13.4 °F 10.9 °F 1022.2 in WNW 1.6 mph 6.4 mph 85 % 0.0 in
22:32 13.4 °F 11.1 °F 1022.2 in NNW 3.2 mph 6.4 mph 86 % 0.0 in
22:42 13.4 °F 10.9 °F 1022.2 in WNW 1.6 mph 6.4 mph 85 % 0.0 in
22:47 13.4 °F 10.9 °F 1022.2 in NW 3.2 mph 6.4 mph 85 % 0.0 in
22:52 13.4 °F 11.1 °F 1022.2 in NW 3.2 mph 6.4 mph 86 % 0.0 in
22:57 13.3 °F 11.0 °F 1022.2 in Calm   6.4 mph 86 % 0.0 in
23:02 13.2 °F 10.9 °F 1022.2 in WNW 1.6 mph 6.4 mph 86 % 0.0 in
23:12 13.1 °F 11.0 °F 1022.2 in Calm   4.8 mph 87 % 0.0 in
23:17 13.1 °F 11.0 °F 1022.2 in Calm   4.8 mph 87 % 0.0 in
23:22 13.1 °F 10.8 °F 1022.2 in NNW 1.6 mph 4.8 mph 86 % 0.0 in
23:32 13.2 °F 10.9 °F 1022.2 in Calm   3.2 mph 86 % 0.0 in
23:37 13.2 °F 10.9 °F 1022.2 in Calm   3.2 mph 86 % 0.0 in
23:42 13.2 °F 10.7 °F 1022.2 in NNW 1.6 mph 1.6 mph 85 % 0.0 in
23:47 13.2 °F 10.7 °F 1022.2 in NNW 1.6 mph 1.6 mph 85 % 0.0 in
23:52 13.2 °F 10.7 °F 1022.2 in WNW 1.6 mph 3.2 mph 85 % 0.0 in
23:57 13.1 °F 10.6 °F 1022.2 in West 1.6 mph 3.2 mph 85 % 0.0 in
Meteo18
Compliments of Weather Underground - 4 mb

Script developed by  Jim McMurry - jmcmurry@mwt.net Adapted for the template by  Wim van der Kuil - Leuven-Template.eu

You find our weather info also at:

European Weather Network

Weather Underground

Equipment we use:

Weather-station
Davis Vue

Weather-program
Meteobridge

Weather-server
Raspberry PI 2 B+

Provider
1 and 1

Davis Vue

Meteobridge

Raspberry PI 2 B+

1 and 1